Cork, Ireland

9:39 AM IST on September 25, 2017 (GMT +0100)
Cork

Weather History for EICK - December, 2012

Change the Weather History Date:

Sunday, December 2, 2012

  Actual Average Record
Temperature  
Mean Temperature 44 °F -  
Max Temperature 51 °F 47 °F 53 °F (2007)
Min Temperature 37 °F 38 °F 24 °F (2010)
Degree Days  
Heating Degree Days 21    
Moisture  
Dew Point 45 °F    
Average Humidity 99    
Maximum Humidity 100    
Minimum Humidity 84    
Precipitation  
Precipitation 0.08 in 0.18 in - ()
Sea Level Pressure  
Sea Level Pressure 29.96 in    
Wind  
Wind Speed 6 mph ()    
Max Wind Speed 15 mph    
Max Gust Speed -    
Visibility 3.9 miles    
Events Fog , Rain    
Averages and records for this station are not official NWS values.
T = Trace of Precipitation, MM = Missing Value Source: Averaged Metar Reports

Daily Weather History Graph

Daily Weather History Graph

Search for Another Location

Airport or City:

Trip Planner

Search our weather history database for the weather conditions in past years. The results will help you decide how hot, cold, wet, or windy it might be!

Date:

Astronomy

Dec. 02, 2012 Rise Set
Actual Time 8:20 AM GMT 4:25 PM GMT
Civil Twilight 7:41 AM GMT 5:05 PM GMT
Nautical Twilight 6:58 AM GMT 5:48 PM GMT
Astronomical Twilight 6:17 AM GMT 6:28 PM GMT
Moon 8:11 PM GMT (12/2) 10:53 AM GMT (12/2)
Length of Visible Light 9h 24m
Length of Day
8h 05m
Waning Gibbous, 87% of the Moon is Illuminated
Dec 2
Waning Gibbous
Dec 6
Last Quarter
Dec 13
New
Dec 20
First Quarter
Dec 28
Full

Hourly Weather History & Observations

Time (GMT) Temp. Windchill Dew Point Humidity Pressure Visibility Wind Dir Wind Speed Gust Speed Precip Events Conditions
12:00 AM 39 °F - 36 °F 84% 30.14 in 12 mi WSW 2.2 mph - - Rain Light Drizzle
12:00 AM 39.2 °F - 35.6 °F 87% 30.09 in 6.2 mi WSW 2.3 mph - N/A   Light Drizzle
12:30 AM 39.2 °F - 35.6 °F 87% 30.09 in 6.2 mi SW 2.3 mph - N/A   Light Drizzle
1:00 AM 39.2 °F 37.0 °F 37.4 °F 93% 30.09 in 6.2 mi SSW 3.5 mph - N/A   Light Drizzle
1:30 AM 39.2 °F 35.9 °F 37.4 °F 93% 30.09 in 6.2 mi SSW 4.6 mph - N/A   Light Drizzle
2:00 AM 39.2 °F 37.0 °F 39.2 °F 100% 30.06 in 5.6 mi SSW 3.5 mph - N/A   Light Drizzle
2:30 AM 37.4 °F 34.9 °F 37.4 °F 100% 30.06 in 4.3 mi South 3.5 mph - N/A Rain Light Rain
3:00 AM 37.4 °F 33.8 °F 37.4 °F 100% 30.06 in 4.3 mi SSW 4.6 mph - N/A Rain Light Rain
3:30 AM 37.4 °F 32.8 °F 37.4 °F 100% 30.04 in 0.5 mi South 5.8 mph - N/A Fog , Rain Light Rain
4:00 AM 39.2 °F 35.9 °F 39.2 °F 100% 30.04 in 0.7 mi South 4.6 mph - N/A Rain Light Rain
4:30 AM 37.4 °F 34.9 °F 37.4 °F 100% 30.04 in 0.3 mi SE 3.5 mph - N/A Fog , Rain Light Rain
5:00 AM 39.2 °F 35.9 °F 39.2 °F 100% 30.01 in 0.3 mi SE 4.6 mph - N/A Fog , Rain Light Rain
5:30 AM 39.2 °F 37.0 °F 39.2 °F 100% 30.01 in 0.3 mi SE 3.5 mph - N/A Fog , Rain Light Rain
6:00 AM 39.2 °F 37.0 °F 39.2 °F 100% 30.01 in 0.3 mi SE 3.5 mph - N/A Fog , Rain Light Rain
6:30 AM 39.2 °F 37.0 °F 39.2 °F 100% 30.01 in 0.4 mi ESE 3.5 mph - N/A Fog , Rain Light Rain
7:00 AM 41.0 °F 39.0 °F 41.0 °F 100% 29.98 in 0.5 mi SE 3.5 mph - N/A Fog , Rain Light Rain
7:30 AM 41.0 °F 39.0 °F 41.0 °F 100% 29.98 in 0.4 mi ESE 3.5 mph - N/A Fog , Rain Light Rain
8:00 AM 41.0 °F - 41.0 °F 100% 29.98 in 0.2 mi Variable 2.3 mph - N/A Fog , Rain Light Rain
8:30 AM 41.0 °F - 41.0 °F 100% 29.98 in 0.2 mi Calm Calm - N/A Fog Fog
9:00 AM 41.0 °F - 41.0 °F 100% 29.98 in 0.2 mi NW 2.3 mph - N/A Fog Fog
9:30 AM 41.0 °F - 41.0 °F 100% 29.98 in 0.2 mi NNW 2.3 mph - N/A Fog , Rain Light Rain
10:00 AM 42.8 °F - 42.8 °F 100% 29.98 in 0.4 mi NW 2.3 mph - N/A Fog , Rain Light Rain
10:30 AM 42.8 °F - 42.8 °F 100% 29.98 in 0.4 mi West 2.3 mph - N/A Fog Fog
11:00 AM 44.6 °F 43.1 °F 44.6 °F 100% 29.98 in 0.4 mi Variable 3.5 mph - N/A Fog Fog
11:30 AM 44.6 °F 40.7 °F 44.6 °F 100% 29.98 in 0.4 mi West 6.9 mph - N/A Fog Fog
12:00 PM 46 °F - 46 °F 99% 29.99 in 2 mi West 13.4 mph - - Fog Light Fog
12:00 PM 46.4 °F 40.4 °F 46.4 °F 100% 29.98 in 1.9 mi West 13.8 mph - N/A   Mostly Cloudy
12:30 PM 48.2 °F - 48.2 °F 100% 29.95 in 2.5 mi WSW 8.1 mph - N/A   Mostly Cloudy
1:00 PM 50.0 °F - 50.0 °F 100% 29.95 in 6.2 mi WSW 12.7 mph - N/A   Mostly Cloudy
1:30 PM 50.0 °F - 50.0 °F 100% 29.95 in 6.2 mi WSW 10.4 mph - N/A   Mostly Cloudy
2:00 PM 51.8 °F - 50.0 °F 94% 29.95 in 6.2 mi WSW 9.2 mph - N/A   Scattered Clouds
2:30 PM 51.8 °F - 50.0 °F 94% 29.92 in 6.2 mi WSW 11.5 mph - N/A   Mostly Cloudy
3:00 PM 51.8 °F - 50.0 °F 94% 29.92 in 6.2 mi SW 10.4 mph - N/A   Mostly Cloudy
3:30 PM 50.0 °F - 50.0 °F 100% 29.92 in 6.2 mi WSW 9.2 mph - N/A Rain Light Rain
4:00 PM 50.0 °F - 50.0 °F 100% 29.92 in 6.2 mi SW 8.1 mph - N/A   Mostly Cloudy
4:30 PM 50.0 °F - 50.0 °F 100% 29.89 in 6.2 mi SW 11.5 mph - N/A   Mostly Cloudy
5:00 PM 50.0 °F - 50.0 °F 100% 29.89 in 6.2 mi SW 9.2 mph - N/A   Mostly Cloudy
5:30 PM 50.0 °F - 50.0 °F 100% 29.89 in 6.2 mi SW 10.4 mph - N/A Rain Light Rain
6:00 PM 50 °F - 50 °F 99% 29.90 in 6 mi SW 13.4 mph - - Rain Light Rain
6:00 PM 50.0 °F - 50.0 °F 100% 29.89 in 6.2 mi SW 12.7 mph - N/A Rain Light Rain
6:30 PM 50.0 °F - 50.0 °F 100% 29.86 in 6.2 mi SW 13.8 mph - N/A   Mostly Cloudy
7:00 PM 50.0 °F - 50.0 °F 100% 29.86 in 5.6 mi SW 15.0 mph - N/A Rain Light Rain
7:30 PM 50.0 °F - 50.0 °F 100% 29.86 in 2.5 mi SW 13.8 mph - N/A Rain Light Rain
8:00 PM 50.0 °F - 50.0 °F 100% 29.83 in 4.3 mi SW 15.0 mph - N/A Rain Light Rain
8:30 PM 50.0 °F - 50.0 °F 100% 29.83 in 6.2 mi SW 13.8 mph - N/A Rain Light Rain
9:00 PM 50.0 °F - 50.0 °F 100% 29.83 in 6.2 mi WSW 13.8 mph - N/A   Light Drizzle
9:30 PM 51.8 °F - 51.8 °F 100% 29.83 in 6.2 mi WSW 12.7 mph - N/A   Mostly Cloudy
10:00 PM 51.8 °F - 51.8 °F 100% 29.83 in 6.2 mi WSW 10.4 mph - N/A   Mostly Cloudy
10:30 PM 51.8 °F - 51.8 °F 100% 29.83 in 6.2 mi WSW 11.5 mph - N/A   Mostly Cloudy
11:00 PM 51.8 °F - 51.8 °F 100% 29.80 in 6.2 mi SW 10.4 mph - N/A   Mostly Cloudy
11:30 PM 50.0 °F - 50.0 °F 100% 29.80 in 6.2 mi WSW 10.4 mph - N/A   Mostly Cloudy